Home   Weather   Kitakyushu   Past weeks

Flag for Japan Past Weather in Kitakyushu, Japan — Yesterday and Last 2 Weeks

Now
55 °F

Scattered clouds.


Feels Like: 54 °F
Forecast: 45 / 56 °F
Wind: 6 mph from Northeast

Location: Kitakyushu Airport

Current Time: Dec 11, 2016 at 3:24:11 pm

Latest Report: Dec 11, 2016 at 2:00 pm


Visibility: N/A

Pressure: 30.24 "Hg

Humidity: 38%

Dew Point: 30 °F

Location of KitakyushuLocation

Past Weather in Kitakyushu — Graph

°F

Kitakyushu Temperature Yesterday

Maximum temperature yesterday: 55 °F (at 2:00 pm)
Minimum temperature yesterday: 50 °F (at 3:00 am)
Average temperature yesterday: 52 °F

High & Low Weather Summary for the Past Weeks

 TemperatureHumidityPressure
High63 °F (Dec 5, 12:00 pm)94% (Nov 27, 2:00 am)30.42 "Hg (Nov 27, 2:00 am)
Low43 °F (Dec 7, 3:00 am)35% (Dec 6, 10:00 am)29.95 "Hg (Nov 27, 2:00 pm)
Average53 °F67%30.16 "Hg
* Reported Nov 26 2:00 pm — Dec 11 2:00 pm, Kitakyushu, Weather by CustomWeather, © 2016

Note: Actual official high and low records may vary slightly from our data, if they occured in-between our weather recording intervals... More about our weather records

Advertising

Kitakyushu Weather History for the Previous 24 Hours

Scroll right to see more
 ConditionsComfort  
Time TempWeatherWind HumidityBarometerVisibility
2:00 pm
Sun, Dec 11
55 °FScattered clouds.6 mph38%30.24 "HgN/A
1:00 pm55 °FScattered clouds.9 mph44%30.24 "HgN/A
12:00 pm55 °FScattered clouds.8 mph44%30.27 "HgN/A
11:00 am54 °FScattered clouds.5 mph44%30.30 "HgN/A
10:00 am52 °FScattered clouds.5 mph54%30.30 "HgN/A
9:00 am50 °FScattered clouds.3 mph62%30.27 "HgN/A
8:00 am46 °FPassing clouds.7 mph62%30.27 "HgN/A
7:00 am46 °FPassing clouds.3 mph71%30.24 "HgN/A
6:00 am46 °FPassing clouds.5 mph71%30.21 "HgN/A
5:00 am46 °FPassing clouds.3 mph71%30.21 "HgN/A
4:00 am48 °FPassing clouds.5 mph62%30.18 "HgN/A
3:00 am48 °FPassing clouds.3 mph66%30.21 "HgN/A
2:00 am48 °FPassing clouds.5 mph62%30.21 "HgN/A
1:00 am48 °FPassing clouds.7 mph62%30.18 "HgN/A
12:00 am48 °FPassing clouds.12 mph54%30.18 "HgN/A
11:00 pm
Sat, Dec 10
50 °FPassing clouds.5 mph71%30.18 "HgN/A
10:00 pm50 °FPassing clouds.7 mph82%30.18 "HgN/A
9:00 pm50 °FPartly cloudy.6 mph76%30.18 "HgN/A
8:00 pm50 °FPassing clouds.5 mph71%30.18 "HgN/A
7:00 pm50 °FPassing clouds.9 mph71%30.15 "HgN/A
6:00 pm52 °FPassing clouds.9 mph62%30.15 "HgN/A
5:00 pm54 °FScattered showers. Partly sunny.10 mph58%30.12 "HgN/A
4:00 pm54 °FScattered clouds.9 mph58%30.12 "HgN/A
3:00 pm55 °FScattered clouds.13 mph51%30.09 "HgN/A
Weather by CustomWeather, © 2016

See weather overviewHow to use our weather pages